Torna al catalogo

STARLINK-37473

AttivoComunicazioniSSO
NORAD 68804·PAYLOAD·🇺🇸 United States

Lanciato Apr 23, 2026 da Vandenberg Space Force Base

Loading…

Prossimi Passaggi (prossime 24 ore)

TLE

AggiornatoSource: CelesTrak SupGP

Epoca: Sep 14, 2026, 21:33 UTC

1 68804C 26089C   26257.89840278  .00069460  00000+0  21571-2 0  2578
2 68804  97.2847 103.6701 0001765  92.7322 356.3054 15.33389846    14

Traccia STARLINK-37473 in tempo reale con AllMySat

Download on the App Store